User: anonymous   Login
Location: Unspecified
(0.0000°N, 0.0000°E)
Time: 09:58:09
(UTC+02:00)
Language:

Cosmos 1295 Rocket - Orbit

View from above orbital plane
View from above orbital plane
View from above satellite
View from above satellite

Ground track
Ground track

The orbit data is extracted from the following two-line orbital elements,

1 12682U 81077B   17143.61510138 +.00000049 +00000-0 +32775-4 0  9994
2 12682 082.9191 034.5172 0035209 054.2487 306.1937 13.78530849799217
Epoch (UTC): 23 May 2017 14:45:44
Eccentricity: 0.0035209
inclination: 82.9191°
perigee height: 943 km
apogee height: 995 km
right ascension of ascending node: 34.5172°
argument of perigee: 54.2487°
revolutions per day: 13.78530849
mean anomaly at epoch: 306.1937°
orbit number at epoch: 79921

The dashed part of the orbit path shows where the satellite is in the earth's shadow,  

DLR